DAMPE (41173 NORAD) Tracking and Keplerian Element Data

This shows tracking and keplerian element data for the satellite.

Feedback or suggestion? Click here.




ElementValue
Catalog41173
NameDAMPE
Epoch Orbit14370
Epoch Day198.82236551
Epoch Year2018
RAAN200.7734
Inclination97.2916
Eccentricity0.0013051
Argument of Perigee194.606
Mean Anonmoly243.4131
Mean Motion15.23707539
Decay Rate-4E-08
L11 41173U 15078A 18198.82236551 -.00000004 00000-0 27119-5 0 9996
L22 41173 97.2916 200.7734 0013051 194.6060 243.4131 15.23707539143706

Live tracking and technical data element details for DAMPE (NORAD 41173). DAMPE can be tracked NOW for your location showing map with azimuth and elevation plus other details from your city location.

Track the satellite on the map from your city or location and see movement details for azimuth, elevation, latitude, longitude, range, height, and movement on the map or in text.







IsCatalogInMostPopularTable: catalog: 41173, numindb: 52
Update: records affected: 1



GetName: 41173 DAMPE

Hit Count: updated at: Fri, 20 Jul 2018 20:31:45 GMT